Flag for U.S.A. Weather past 2 weeks in Buffalo, New York, U.S.A.

Now
41 °F

Clear.


Feels Like: 36 °F
Forecast: 44 / 65 °F
Wind: 7 mph from Southeast

Location: Greater Buffalo International Airport

Current Time: Sep 19, 2014 at 5:51:44 AM

Latest Report: Sep 19, 2014 at 4:54 AM


Visibility: 10 mi

Pressure: 30.29 "Hg

Humidity: 89%

Dew point: 38 °F

Location of BuffaloLocation

Historic Weather in Buffalo — Graph

°F

Buffalo temperature yesterday

Maximum temperature yesterday: 60 °F (at 10:54 AM)
Minimum temperature yesterday: 46 °F (at 11:54 PM)
Average temperature yesterday: 52 °F

Past Weeks' High & Low Weather Summary

 TemperatureHumidityPressure
High86 °F (Sep 5, 1:54 PM)94% (Sep 6, 7:54 AM)30.37 "Hg (Sep 6, 7:54 AM)
Low41 °F (Sep 19, 3:54 AM)37% (Sep 7, 3:54 PM)29.59 "Hg (Sep 11, 3:54 AM)
Average62 °F71%30.09 "Hg
* Reported Sep 4 4:54 AM — Sep 19 4:54 AM, Buffalo, Weather by CustomWeather, © 2014

Note: Actual official high and low records may vary slightly from our data, if they occured in-between our weather recording intervals... More about our weather records

Advertising

Buffalo weather history for previous 24 hours

 ConditionsComfort  
Time TempWeatherWind HumidityBarometerVisibility
4:54 AM
Sep 19
41 °FClear.7 mph89%30.29 "Hg10 mi
3:54 AM41 °FPassing clouds.6 mph89%30.27 "Hg10 mi
2:54 AM43 °FPassing clouds.No wind89%30.27 "Hg10 mi
1:54 AM43 °FPassing clouds.3 mph89%30.26 "Hg10 mi
12:54 AM44 °FPassing clouds.3 mph89%30.24 "Hg10 mi
11:54 PM
Sep 18
46 °FPassing clouds.No wind89%30.23 "Hg10 mi
10:54 PM47 °FPassing clouds.3 mph90%30.22 "Hg10 mi
9:54 PM47 °FPassing clouds.3 mph90%30.20 "Hg10 mi
8:54 PM49 °FPassing clouds.3 mph86%30.19 "Hg10 mi
7:54 PM50 °FScattered clouds.5 mph83%30.17 "Hg10 mi
6:54 PM52 °FScattered clouds.6 mph77%30.17 "Hg10 mi
5:54 PM54 °FPartly sunny.8 mph77%30.16 "Hg10 mi
4:54 PM52 °FMostly cloudy.6 mph83%30.16 "Hg10 mi
3:54 PM53 °FLow clouds.7 mph83%30.15 "Hg10 mi
2:54 PM53 °FLow clouds.9 mph83%30.14 "Hg10 mi
1:54 PM54 °FLow clouds.10 mph80%30.13 "Hg10 mi
12:54 PM54 °FLow clouds.12 mph83%30.12 "Hg10 mi
11:54 AM56 °FPartly sunny.15 mph87%30.10 "Hg10 mi
10:54 AM60 °FPartly sunny.8 mph75%30.08 "Hg10 mi
9:54 AM58 °FPartly sunny.9 mph78%30.07 "Hg10 mi
8:54 AM59 °FPassing clouds.3 mph72%30.06 "Hg10 mi
7:54 AM53 °FPassing clouds.No wind86%30.05 "Hg10 mi
6:54 AM50 °FPassing clouds.No wind89%30.03 "Hg10 mi
5:54 AM51 °FPassing clouds.5 mph86%30.00 "Hg10 mi
Weather by CustomWeather, © 2014

See weather overviewHow to use our weather pages